TimeCST,TemperatureF,Dew PointF,Humidity,Sea Level PressureIn,VisibilityMPH,Wind Direction,Wind SpeedMPH,Gust SpeedMPH,PrecipitationIn,Events,Conditions,WindDirDegrees,DateUTC
12:02 AM,33.8,33.8,100,30.18,1.8,Calm,Calm,-,N/A,,Overcast,0,2012-11-05 06:02:00
12:17 AM,33.8,33.8,100,30.18,2.0,Calm,Calm,-,N/A,,Overcast,0,2012-11-05 06:17:00
12:35 AM,33.8,33.8,100,30.19,1.8,Calm,Calm,-,N/A,,Overcast,0,2012-11-05 06:35:00
12:52 AM,34.0,34.0,100,30.24,1.8,Calm,Calm,-,N/A,,Overcast,0,2012-11-05 06:52:00
1:22 AM,35.6,33.8,93,30.18,2.5,Calm,Calm,-,N/A,,Overcast,0,2012-11-05 07:22:00
1:31 AM,35.6,33.8,93,30.18,4.0,Calm,Calm,-,N/A,,Overcast,0,2012-11-05 07:31:00
1:52 AM,35.1,34.0,96,30.23,5.0,Calm,Calm,-,N/A,,Overcast,0,2012-11-05 07:52:00
2:52 AM,35.1,34.0,96,30.25,6.0,Calm,Calm,-,N/A,,Overcast,0,2012-11-05 08:52:00
3:12 AM,35.6,33.8,93,30.19,6.0,Calm,Calm,-,N/A,,Overcast,0,2012-11-05 09:12:00
3:32 AM,35.6,33.8,93,30.18,6.0,Calm,Calm,-,N/A,,Overcast,0,2012-11-05 09:32:00
3:52 AM,36.0,34.0,93,30.24,6.0,Calm,Calm,-,N/A,,Overcast,0,2012-11-05 09:52:00
4:18 AM,35.6,35.6,100,30.18,4.0,NW,4.6,-,N/A,,Overcast,320,2012-11-05 10:18:00
4:43 AM,35.6,35.6,100,30.17,4.0,NNW,3.5,-,N/A,,Overcast,330,2012-11-05 10:43:00
4:52 AM,36.0,35.1,97,30.23,4.0,Calm,Calm,-,N/A,,Overcast,0,2012-11-05 10:52:00
5:15 AM,35.6,35.6,100,30.17,5.0,Calm,Calm,-,N/A,,Overcast,0,2012-11-05 11:15:00
5:52 AM,36.0,34.0,93,30.22,5.0,Calm,Calm,-,N/A,,Overcast,0,2012-11-05 11:52:00
6:52 AM,36.0,35.1,97,30.20,4.0,Calm,Calm,-,N/A,,Overcast,0,2012-11-05 12:52:00
7:28 AM,35.6,35.6,100,30.15,4.0,Calm,Calm,-,N/A,,Overcast,0,2012-11-05 13:28:00
7:52 AM,36.0,35.1,97,30.21,5.0,West,3.5,-,N/A,,Overcast,280,2012-11-05 13:52:00
8:20 AM,37.4,35.6,93,30.16,4.0,Calm,Calm,-,N/A,,Overcast,0,2012-11-05 14:20:00
8:52 AM,37.0,36.0,96,30.19,5.0,SSE,3.5,-,N/A,,Overcast,150,2012-11-05 14:52:00
9:15 AM,37.4,35.6,93,30.14,6.0,South,4.6,-,N/A,,Overcast,180,2012-11-05 15:15:00
9:52 AM,37.9,36.0,93,30.19,9.0,South,5.8,-,N/A,,Overcast,190,2012-11-05 15:52:00
10:52 AM,39.0,36.0,89,30.15,10.0,SSW,5.8,-,N/A,,Overcast,200,2012-11-05 16:52:00
11:52 AM,39.9,35.1,83,30.12,10.0,SSW,9.2,-,N/A,,Overcast,200,2012-11-05 17:52:00
12:03 PM,41.0,35.6,81,30.06,10.0,SSW,9.2,-,N/A,,Overcast,200,2012-11-05 18:03:00
12:52 PM,43.0,37.0,80,30.07,10.0,SSW,15.0,-,N/A,,Overcast,210,2012-11-05 18:52:00
1:52 PM,44.1,37.0,76,30.01,10.0,South,12.7,-,N/A,,Overcast,180,2012-11-05 19:52:00
2:29 PM,44.6,35.6,71,29.96,10.0,South,15.0,-,N/A,,Mostly Cloudy,180,2012-11-05 20:29:00
2:52 PM,43.0,37.0,80,30.00,10.0,South,13.8,-,0.01,Rain,Light Rain,180,2012-11-05 20:52:00
3:52 PM,42.1,39.0,89,29.95,10.0,SSE,12.7,-,0.02,Rain,Light Rain,160,2012-11-05 21:52:00
4:52 PM,42.1,39.0,89,29.91,10.0,South,18.4,-,0.00,Rain,Light Rain,170,2012-11-05 22:52:00
5:52 PM,42.1,39.9,92,29.91,9.0,South,15.0,-,0.02,Rain,Light Rain,180,2012-11-05 23:52:00
6:52 PM,42.1,39.9,92,29.89,10.0,South,13.8,-,0.00,,Mostly Cloudy,180,2012-11-06 00:52:00
7:52 PM,41.0,39.0,93,29.85,10.0,SSE,11.5,-,N/A,,Clear,150,2012-11-06 01:52:00
8:52 PM,42.1,39.9,92,29.85,10.0,South,8.1,-,N/A,,Scattered Clouds,180,2012-11-06 02:52:00
9:52 PM,42.1,39.0,89,29.87,10.0,Calm,Calm,-,N/A,,Clear,0,2012-11-06 03:52:00
10:52 PM,45.0,39.0,80,29.90,10.0,NW,11.5,-,N/A,,Clear,320,2012-11-06 04:52:00
11:52 PM,42.1,36.0,79,29.91,10.0,NNW,12.7,-,N/A,,Clear,340,2012-11-06 05:52:00